CAPE
0 0 0 0 1 1 2 1 0 0 1 1 2 4 0 1 0 0 0 0 0 0 0 29 54 18 22 121 558 295 372 375 166 235 720 489 731 728 634 517 353 291 364 333 167
0 0 0 0 0 1 2 2 1 0 1 2 3 4 1 2 0 0 0 0 0 0 0 5 6 4 8 73 512 376 521 455 99 348 343 468 907 874 719 547 365 272 209 172 179
0 0 0 0 0 2 1 1 1 0 0 1 2 1 1 0 0 0 0 0 0 0 0 0 0 0 0 9 278 343 503 280 244 468 646 428 883 863 818 713 556 480 290 191 225
0 0 0 0 0 2 1 0 0 1 1 1 1 0 0 0 0 0 0 0 0 0 0 0 0 0 0 0 17 114 223 583 459 248 636 772 865 859 760 801 654 477 286 226 313
0 1 3 1 0 1 1 0 0 0 0 1 1 0 0 0 0 0 0 0 0 0 0 0 0 0 0 0 0 0 196 450 505 341 325 295 530 875 836 831 558 389 264 254 287
1 2 2 2 4 0 0 0 0 0 0 0 0 0 0 0 0 0 0 0 0 0 0 0 0 0 0 0 0 0 0 64 366 509 342 431 353 660 839 728 573 374 295 261 233
1 2 1 1 1 0 0 0 0 0 0 0 0 0 0 0 0 0 0 0 0 0 0 0 0 0 0 0 0 0 0 0 6 398 448 372 395 403 815 685 601 417 312 232 232
1 2 2 3 0 0 0 0 0 0 0 0 0 0 0 0 0 0 0 0 0 0 0 0 0 0 0 0 0 0 0 0 11 271 334 275 407 454 768 745 671 485 331 232 212
1 1 1 2 0 0 0 0 0 0 0 0 0 0 0 0 0 0 0 0 0 0 0 0 0 0 0 0 0 0 0 0 360 284 380 315 454 804 689 775 796 569 393 274 258
2 1 1 0 0 0 0 0 0 0 0 0 0 0 0 0 0 0 0 0 0 0 0 0 0 0 0 0 0 0 0 0 121 296 382 444 510 811 745 776 836 678 441 338 335
2 0 1 0 0 0 0 0 0 0 0 0 0 0 0 0 0 0 0 0 0 0 0 0 0 0 0 0 0 0 0 0 0 215 350 449 429 927 706 770 792 783 619 422 345
3 0 0 1 0 0 0 0 0 0 0 0 0 0 0 0 0 0 0 0 0 0 0 0 0 0 0 0 0 0 0 0 0 21 262 399 342 340 933 699 825 824 754 514 420
3 1 0 0 0 0 0 0 0 0 0 0 0 0 0 0 0 0 0 0 0 0 0 0 0 0 0 0 0 0 0 0 0 0 6 263 371 304 533 811 721 717 757 590 460
6 3 1 1 0 0 0 0 0 0 0 0 0 0 0 0 0 0 0 0 0 0 0 0 0 0 0 0 0 0 0 0 0 0 0 63 276 259 279 876 849 764 742 697 555
2 2 1 0 0 0 0 0 0 0 0 0 0 0 0 0 0 0 0 0 0 0 0 0 0 0 0 0 0 0 0 0 0 0 0 1 106 136 231 468 968 891 722 631 590
1 0 0 0 0 0 0 0 0 0 0 0 0 0 0 0 0 0 0 0 0 0 0 0 0 0 0 0 0 0 0 0 0 0 0 0 7 40 97 212 452 866 818 765 578
0 0 0 0 0 0 0 0 0 0 0 0 0 0 0 0 0 0 0 0 0 0 0 0 0 0 0 0 0 0 0 0 0 0 0 0 0 0 40 151 176 436 800 897 920
0 0 0 0 0 0 0 0 0 0 0 0 0 0 0 0 0 0 0 0 0 0 0 0 0 0 0 0 0 0 0 0 0 0 0 0 0 0 0 3 55 178 628 969 1070
0 0 0 0 0 0 0 0 0 0 0 0 0 0 0 0 0 0 0 0 0 0 0 0 0 0 0 0 0 2 0 0 0 0 0 0 0 0 0 0 0 14 179 392 702
0 0 0 0 0 0 0 0 0 0 0 0 0 0 0 0 0 0 0 0 0 0 0 0 0 0 0 0 0 0 0 0 0 0 0 0 0 0 0 0 0 0 4 134 424
0 0 0 0 0 0 0 0 0 0 0 0 0 0 0 0 0 0 0 0 0 0 0 0 0 0 0 0 0 0 0 25 4 1 0 0 0 0 0 0 0 0 0 16 425
0 0 0 0 0 0 0 0 0 0 0 0 0 1 2 1 3 7 5 4 0 0 0 0 0 0 0 0 11 2 36 16 57 12 0 0 1 0 0 0 0 0 0 11 81
0 0 0 0 0 0 0 0 0 0 0 0 0 0 0 0 0 8 10 5 0 0 1 8 0 0 0 0 0 0 1 32 46 59 32 10 0 0 0 0 0 0 0 29 76
0 0 0 0 1 0 0 1 1 1 4 4 12 16 26 33 34 31 21 19 5 3 0 0 0 2 0 0 0 4 29 43 16 57 28 36 32 6 0 0 0 0 0 2 48
0 0 0 0 0 5 5 8 12 11 10 8 13 15 13 22 15 21 26 22 22 33 18 39 24 22 2 0 0 0 0 0 0 5 39 35 41 53 0 0 0 0 0 0 0
1 3 12 0 9 5 5 9 12 11 4 11 15 17 37 61 39 86 69 121 102 64 107 100 62 24 18 0 0 0 0 0 0 0 0 0 5 43 17 0 0 0 11 33 31
6 8 9 3 18 29 30 20 18 23 11 8 16 31 15 11 21 6 73 94 145 154 208 119 108 76 34 6 1 0 0 0 0 0 0 0 0 2 15 1 50 18 5 0 4
CIN
-0 -0 -0 -0 -0 -0 -0 -0 -0 -0 -0 -0 -0 -0 -0 -0 -0 -0 -0 -0 -0 -0 -0 -141 -85 -73 -0 -18 -0 -8 -0 -0 -4 -0 -0 -20 -11 -4 -8 -12 -15 -17 -2 -34 -48
-0 -0 -0 -0 -0 -0 -0 -0 -0 -0 -0 -0 -0 -0 -0 -0 -0 -0 -0 -0 -0 -0 -0 -0 -0 -0 -0 -34 -1 -3 -0 -0 -6 -2 -18 -10 -0 -7 -4 -7 -12 -19 -34 -72 -74
-0 -0 -0 -0 -0 -0 -0 -0 -0 -0 -0 -0 -0 -0 -0 -0 -0 -0 -0 -0 -0 -0 -0 -0 -0 -0 -0 -17 -7 -5 -0 -4 -3 -1 -5 -31 -0 -0 -0 -0 -7 -16 -53 -89 -77
-0 -0 -0 -0 -0 -0 -0 -0 -0 -0 -0 -0 -0 -0 -0 -0 -0 -0 -0 -0 -0 -0 -0 -0 -0 -0 -0 -0 -38 -13 -14 -0 -0 -8 -0 -0 -0 -0 -0 -0 -4 -30 -71 -95 -61
-0 -0 -0 -0 -0 -0 -0 -0 -0 -0 -0 -0 -0 -0 -0 -0 -0 -0 -0 -0 -0 -0 -0 -0 -0 -0 -0 -0 -0 -0 -4 -0 -0 -0 -0 -17 -0 -0 -0 -8 -29 -59 -88 -84 -48
-0 -0 -0 -0 -0 -0 -0 -0 -0 -0 -0 -0 -0 -0 -0 -0 -0 -0 -0 -0 -0 -0 -0 -0 -0 -0 -0 -0 -0 -0 -0 -11 -0 -0 -0 -0 -0 -9 -5 -32 -45 -70 -78 -67 -60
-0 -0 -0 -0 -0 -0 -0 -0 -0 -0 -0 -0 -0 -0 -0 -0 -0 -0 -0 -0 -0 -0 -0 -0 -0 -0 -0 -0 -0 -0 -0 -0 -41 -8 -0 -3 -0 -0 -20 -44 -48 -50 -65 -57 -49
-0 -0 -0 -0 -0 -0 -0 -0 -0 -0 -0 -0 -0 -0 -0 -0 -0 -0 -0 -0 -0 -0 -0 -0 -0 -0 -0 -0 -0 -0 -0 -0 -2 -8 -15 -21 -0 -0 -34 -41 -45 -47 -60 -68 -60
-0 -0 -0 -0 -0 -0 -0 -0 -0 -0 -0 -0 -0 -0 -0 -0 -0 -0 -0 -0 -0 -0 -0 -0 -0 -0 -0 -0 -0 -0 -0 -0 -0 -3 -1 -13 -0 -16 -40 -28 -36 -49 -56 -68 -51
-0 -0 -0 -0 -0 -0 -0 -0 -0 -0 -0 -0 -0 -0 -0 -0 -0 -0 -0 -0 -0 -0 -0 -0 -0 -0 -0 -0 -0 -0 -0 -0 -3 -0 -0 -0 -0 -23 -35 -28 -33 -40 -51 -50 -47
-0 -0 -0 -0 -0 -0 -0 -0 -0 -0 -0 -0 -0 -0 -0 -0 -0 -0 -0 -0 -0 -0 -0 -0 -0 -0 -0 -0 -0 -0 -0 -0 -0 -1 -0 -0 -0 -7 -42 -30 -36 -52 -55 -65 -68
-0 -0 -0 -0 -0 -0 -0 -0 -0 -0 -0 -0 -0 -0 -0 -0 -0 -0 -0 -0 -0 -0 -0 -0 -0 -0 -0 -0 -0 -0 -0 -0 -0 -9 -8 -0 -0 -0 -28 -37 -36 -52 -55 -65 -42
-0 -0 -0 -0 -0 -0 -0 -0 -0 -0 -0 -0 -0 -0 -0 -0 -0 -0 -0 -0 -0 -0 -0 -0 -0 -0 -0 -0 -0 -0 -0 -0 -0 -0 -60 -0 -0 -0 -2 -31 -35 -37 -29 -43 -62
-0 -0 -0 -0 -0 -0 -0 -0 -0 -0 -0 -0 -0 -0 -0 -0 -0 -0 -0 -0 -0 -0 -0 -0 -0 -0 -0 -0 -0 -0 -0 -0 -0 -0 -0 -11 -0 -0 -0 -11 -30 -42 -56 -47 -49
-0 -0 -0 -0 -0 -0 -0 -0 -0 -0 -0 -0 -0 -0 -0 -0 -0 -0 -0 -0 -0 -0 -0 -0 -0 -0 -0 -0 -0 -0 -0 -0 -0 -0 -0 -0 -0 -0 -1 -0 -11 -33 -44 -55 -65
-0 -0 -0 -0 -0 -0 -0 -0 -0 -0 -0 -0 -0 -0 -0 -0 -0 -0 -0 -0 -0 -0 -0 -0 -0 -0 -0 -0 -0 -0 -0 -0 -0 -0 -0 -0 -0 -0 -0 -8 -0 -22 -35 -43 -58
-0 -0 -0 -0 -0 -0 -0 -0 -0 -0 -0 -0 -0 -0 -0 -0 -0 -0 -0 -0 -0 -0 -0 -0 -0 -0 -0 -0 -0 -0 -0 -0 -0 -0 -0 -0 -0 -0 -0 -17 -23 -0 -24 -32 -47
-0 -0 -0 -0 -0 -0 -0 -0 -0 -0 -0 -0 -0 -0 -0 -0 -0 -0 -0 -0 -0 -0 -0 -0 -0 -0 -0 -0 -0 -0 -0 -0 -0 -0 -0 -0 -0 -0 -0 -0 -1 -11 -5 -19 -27
-0 -0 -0 -0 -0 -0 -0 -0 -0 -0 -0 -0 -0 -0 -0 -0 -0 -0 -0 -0 -0 -0 -0 -0 -0 -0 -0 -0 -0 -0 -0 -0 -0 -0 -0 -0 -0 -0 -0 -0 -0 -37 -4 -10 -23
-0 -0 -0 -0 -0 -0 -0 -0 -0 -0 -0 -0 -0 -0 -0 -0 -0 -0 -0 -0 -0 -0 -0 -0 -0 -0 -0 -0 -0 -0 -0 -0 -0 -0 -0 -0 -0 -0 -0 -0 -0 -0 -7 -21 -18
-0 -0 -0 -0 -0 -0 -0 -0 -0 -0 -0 -0 -0 -0 -0 -0 -0 -0 -0 -0 -0 -0 -0 -0 -0 -0 -0 -0 -0 -0 -0 -0 -0 -0 -0 -0 -0 -0 -0 -0 -0 -0 -0 -24 -21
-0 -0 -0 -0 -0 -0 -0 -0 -0 -0 -0 -0 -0 -0 -0 -0 -0 -0 -0 -0 -0 -0 -0 -0 -0 -0 -0 -0 -5 -0 -4 -0 -0 -0 -0 -0 -0 -0 -0 -0 -0 -0 -0 -32 -26
-0 -0 -0 -0 -0 -0 -0 -0 -0 -0 -0 -0 -0 -0 -0 -0 -0 -0 -0 -0 -0 -0 -0 -0 -0 -0 -0 -0 -0 -0 -0 -8 -0 -0 -0 -0 -0 -0 -0 -0 -0 -0 -0 -50 -36
-0 -0 -0 -0 -0 -0 -0 -0 -0 -0 -0 -0 -0 -0 -0 -0 -0 -0 -0 -0 -0 -0 -0 -0 -0 -0 -0 -0 -0 -8 -7 -0 -7 -0 -0 -0 -0 -0 -0 -0 -0 -0 -0 -14 -42
-0 -0 -0 -0 -0 -0 -0 -0 -0 -0 -0 -0 -0 -0 -0 -0 -0 -0 -0 -0 -0 -2 -0 -0 -0 -0 -0 -0 -0 -0 -0 -0 -0 -0 -0 -0 -0 -0 -0 -0 -0 -0 -0 -0 -0
-0 -0 -0 -0 -0 -0 -0 -0 -0 -0 -0 -0 -0 -0 -0 -0 -0 -0 -0 -0 -0 -0 -0 -0 -0 -0 -0 -0 -0 -0 -0 -0 -0 -0 -0 -0 -1 -0 -0 -0 -0 -0 -152 -121 -122
-0 -0 -0 -0 -0 -0 -0 -0 -0 -2 -0 -0 -0 -1 -0 -0 -0 -10 -0 -0 -0 -0 -0 -0 -0 -0 -0 -0 -0 -0 -0 -0 -0 -0 -0 -0 -0 -13 -2 -3 -76 -209 -177 -0 -149
Wind_Speed
19 20 20 20 20 20 19 18 18 16 14 13 11 9 7 6 7 10 9 1 5 9 12 18 17 13 17 12 8 3 7 6 2 4 8 11 7 8 7 11 7 10 5 22 26
20 20 21 20 21 20 19 17 17 18 15 12 10 7 5 5 9 11 1 1 8 13 20 21 19 17 13 14 6 9 6 4 6 5 4 11 12 12 10 13 8 9 11 27 27
21 22 22 22 22 21 20 19 17 16 15 12 7 4 4 8 7 8 2 9 10 15 19 18 17 17 13 12 13 10 5 1 3 4 15 11 9 9 10 10 11 15 24 28 26
23 24 23 24 23 21 20 18 17 15 14 10 5 3 4 8 0 5 12 9 20 19 19 19 20 19 15 13 15 10 12 7 4 7 5 8 11 9 10 9 10 16 24 28 29
24 23 23 24 24 22 20 18 17 15 13 9 5 6 7 7 3 8 9 4 24 22 22 20 21 18 16 14 7 17 9 5 7 5 5 6 6 4 9 6 12 19 24 29 27
23 24 23 24 24 23 21 18 17 14 11 8 7 7 7 3 3 7 4 13 20 22 21 20 15 16 10 8 16 3 16 12 5 10 7 7 6 8 6 10 15 20 25 27 27
23 24 25 24 25 25 23 20 13 9 5 7 9 7 5 7 2 6 2 9 15 19 20 18 6 16 5 10 11 12 9 9 16 14 8 7 10 10 13 13 16 19 22 25 25
24 25 26 25 25 24 22 19 5 2 5 6 6 7 6 2 3 2 3 11 12 4 14 9 8 17 7 2 7 15 16 14 16 16 9 11 10 14 14 15 17 19 21 23 25
24 25 25 25 24 20 18 14 4 6 6 6 8 7 6 5 1 3 1 10 14 8 6 8 9 11 14 13 12 13 13 18 12 15 11 15 6 15 14 15 17 18 21 22 22
23 24 24 25 24 19 16 7 5 9 7 6 5 7 9 7 5 0 4 12 11 15 9 15 10 12 14 16 15 16 18 14 17 15 18 16 7 11 13 14 17 18 20 21 22
24 25 25 26 25 19 10 6 5 7 2 6 6 3 6 6 2 6 9 9 10 18 14 14 16 20 19 18 17 8 12 18 14 11 15 16 14 15 13 14 16 18 20 22 24
24 26 26 26 24 17 9 6 7 6 5 2 2 2 1 3 2 9 6 8 12 15 17 12 20 18 16 13 14 16 12 14 13 9 9 17 18 14 17 16 18 19 20 22 22
25 27 27 25 23 7 6 8 6 3 8 6 1 3 4 5 4 9 5 2 11 16 18 18 4 19 15 15 17 19 19 12 14 12 9 18 17 16 17 15 16 17 18 19 22
22 23 24 25 5 3 1 8 8 7 7 10 6 4 2 1 4 5 5 6 7 11 15 17 19 7 18 20 18 20 18 16 13 11 14 21 14 21 19 19 19 19 20 21 23
23 24 21 12 6 2 8 10 0 6 7 5 5 3 2 2 3 5 3 5 10 9 10 11 12 19 17 17 20 16 14 14 17 15 15 16 14 15 24 20 21 21 22 22 23
25 24 19 4 4 7 9 4 6 8 3 6 2 1 3 3 3 3 2 2 3 9 14 17 6 14 22 18 11 13 16 14 15 16 19 22 18 19 18 21 22 22 22 23 23
26 22 11 5 6 11 8 6 7 7 3 4 1 1 2 3 3 4 3 4 6 9 15 17 17 17 14 17 21 17 17 10 13 16 21 22 22 17 18 18 20 19 22 23 23
25 20 3 3 10 8 6 8 7 5 2 3 2 2 5 1 4 0 3 6 3 7 11 9 15 20 18 21 19 23 21 12 21 16 19 23 25 23 25 15 17 19 19 21 22
24 4 4 10 7 5 8 8 7 3 4 4 6 9 6 4 6 5 2 5 1 4 7 5 13 4 7 13 20 20 25 24 26 16 17 17 21 18 23 27 14 15 16 19 21
6 3 9 14 5 6 7 5 1 4 5 4 7 1 5 8 6 4 2 5 5 2 5 4 10 8 3 7 19 21 16 22 19 22 22 16 19 19 19 22 25 24 18 17 18
5 4 10 14 7 5 3 6 1 3 6 4 6 8 8 7 6 9 4 5 3 5 5 5 7 6 5 13 19 18 23 19 20 19 18 18 15 13 21 26 23 23 23 19 17
4 1 12 9 0 2 5 5 1 4 3 4 6 9 11 9 9 8 7 4 4 3 7 2 8 13 17 14 8 14 15 28 17 27 21 17 14 7 8 19 21 22 22 22 20
4 4 8 7 4 6 5 5 2 4 4 3 4 3 2 8 6 7 9 1 5 8 4 4 7 10 16 19 19 17 16 20 19 23 25 20 18 9 7 7 16 19 20 16 18
4 0 5 8 7 9 2 5 3 3 4 6 8 7 8 10 10 6 6 5 7 10 5 3 12 12 14 12 12 5 11 7 17 19 20 20 17 23 16 8 7 7 5 7 8
5 6 5 6 8 7 4 6 4 5 6 10 4 5 9 6 9 12 13 11 9 7 9 9 14 13 14 15 14 16 18 17 19 18 23 19 21 17 17 19 14 14 4 3 5
3 2 5 2 3 3 9 7 5 6 3 6 5 8 10 11 10 13 10 11 13 10 13 11 14 11 16 17 18 20 21 20 21 20 20 23 23 20 9 7 10 9 6 7 4
4 4 2 1 4 4 4 3 5 9 4 8 11 7 10 12 14 10 13 15 12 8 13 12 11 11 15 13 11 16 22 22 22 21 20 24 19 19 9 12 7 7 7 7 6
Wind_Direction
349 346 345 341 339 336 334 329 325 322 319 316 314 312 308 293 266 222 232 73 184 178 218 159 169 175 182 202 225 264 253 230 169 254 107 136 144 132 85 148 169 176 159 141 148
347 345 343 340 338 336 332 327 322 318 320 320 314 306 294 282 250 241 100 229 235 210 185 172 173 171 196 201 200 227 266 324 27 45 161 157 165 152 168 157 152 157 117 139 154
346 345 341 338 338 337 330 326 320 316 318 320 310 290 251 255 252 105 63 257 219 206 193 182 172 182 197 209 205 216 256 283 78 57 134 167 166 177 160 182 170 164 147 152 160
343 341 339 336 338 336 329 325 318 314 312 311 289 234 225 229 166 71 339 274 197 201 195 190 183 194 205 203 210 250 222 263 21 142 122 156 148 162 183 68 142 153 156 158 166
339 338 337 334 336 336 332 325 316 314 305 294 245 202 214 209 62 6 325 118 164 185 188 183 191 199 212 212 214 231 255 243 215 190 161 161 167 150 187 120 137 147 161 167 168
337 337 337 335 336 336 333 324 316 307 300 282 191 197 241 192 356 10 41 154 169 185 187 193 199 210 247 221 218 198 242 252 218 204 189 233 155 194 139 141 146 158 167 172 172
337 336 336 336 338 336 333 328 320 299 308 141 172 241 225 63 351 2 115 176 173 191 189 197 230 200 220 219 228 238 262 220 228 225 229 233 204 205 132 151 154 164 170 173 174
337 337 335 335 338 336 333 332 347 145 123 152 196 259 75 73 320 144 124 146 186 220 205 189 238 219 237 13 215 225 230 251 205 195 209 232 188 148 159 160 161 167 173 176 178
337 335 334 333 334 333 329 326 112 138 149 195 233 272 84 147 268 85 193 169 170 170 214 183 213 213 207 234 222 203 221 213 163 192 188 212 186 143 169 169 164 170 177 180 182
335 333 333 333 332 333 323 287 174 184 196 226 251 230 61 30 48 346 140 148 157 174 179 196 213 211 218 211 212 208 221 213 220 181 208 202 199 155 176 178 170 175 179 186 188
336 333 335 335 332 328 307 219 226 177 27 3 11 24 64 10 324 72 157 176 173 180 194 196 209 214 214 219 246 314 244 230 209 202 210 218 215 166 182 189 178 181 183 188 192
337 334 335 333 327 311 285 52 51 342 291 119 295 256 18 348 174 60 187 206 176 187 200 186 228 222 234 223 233 242 243 234 241 203 208 229 218 182 182 197 189 188 189 191 189
335 331 329 327 320 284 36 51 332 260 254 160 56 344 21 296 49 34 318 208 216 216 200 214 226 220 220 224 221 230 233 230 240 201 217 259 231 218 180 201 191 193 195 194 192
329 325 322 321 291 7 88 345 318 201 258 134 184 83 338 232 128 27 19 291 221 230 212 234 240 206 212 224 214 232 219 241 249 251 234 213 233 207 203 198 199 195 196 193 195
327 325 325 319 335 343 341 324 296 219 253 88 114 25 349 335 12 73 20 227 262 219 220 214 221 220 220 227 220 243 244 219 237 248 262 240 237 233 194 196 202 204 199 199 195
330 327 323 203 216 10 330 311 217 225 188 124 114 351 204 65 83 2 8 227 323 270 230 260 240 244 227 228 228 222 232 233 229 238 240 229 232 224 212 208 202 198 206 200 198
331 329 313 303 353 330 314 231 230 258 103 113 88 312 9 52 90 7 11 53 290 242 223 218 234 230 243 225 214 210 204 209 207 213 235 222 230 234 225 201 222 205 202 200 199
327 320 136 325 322 304 251 240 251 46 346 78 278 245 282 299 145 307 241 227 124 280 283 261 223 215 205 231 212 215 219 220 217 211 227 222 230 220 239 274 211 225 198 201 200
311 198 314 353 342 273 248 235 12 19 3 297 257 265 192 195 284 255 243 299 356 329 266 287 235 45 294 236 239 205 222 232 257 237 246 213 217 240 216 220 213 224 216 196 202
311 235 28 349 322 240 242 41 48 22 329 268 279 218 263 186 260 200 196 114 141 356 312 84 270 245 247 280 253 257 237 217 234 237 238 225 234 212 208 215 218 219 214 212 204
253 216 12 343 259 239 315 47 6 33 342 297 301 281 274 287 259 281 299 127 261 149 280 295 244 210 245 218 228 213 237 244 235 227 235 240 219 226 211 212 224 220 219 209 201
294 163 1 316 213 15 41 3 319 1 6 305 288 281 283 295 270 257 262 280 77 277 250 235 292 257 251 254 296 303 281 222 232 221 235 265 229 132 230 219 215 227 214 221 218
20 24 25 326 39 63 87 69 2 338 343 325 277 253 251 264 259 243 265 344 194 238 262 171 233 260 236 233 240 251 248 251 253 249 224 224 229 272 194 257 223 222 231 213 221
287 183 86 72 59 65 28 40 9 14 320 317 297 273 269 258 247 267 249 202 226 252 80 264 263 258 279 359 353 288 269 288 264 243 244 236 235 213 230 230 217 232 260 257 217
346 57 349 32 49 26 18 358 358 18 354 321 259 277 304 277 268 253 253 245 215 199 221 252 259 258 265 283 277 267 262 258 261 263 257 240 233 236 225 241 259 253 288 275 254
16 39 75 107 39 353 31 20 333 350 283 290 273 305 330 281 281 293 315 278 262 243 224 233 259 267 269 270 264 262 256 246 249 251 257 263 272 243 218 311 285 270 298 267 251
58 79 259 37 34 350 42 324 305 322 235 257 310 298 269 256 271 268 281 276 240 248 248 235 256 247 261 265 275 268 246 241 239 229 233 236 239 258 278 260 279 290 274 273 267